User: anonymous   Login
Location: Oshawa
(43.9000°N, 78.8670°W)
Time: 02:47:46
(UTC-04:00)
Language:

Iridium 98 - Orbit

View from above orbital plane
View from above orbital plane
View from above satellite
View from above satellite

Ground track
Ground track

The orbit data is extracted from the following two-line orbital elements,

1 27451U 02031B   15187.43224478  .00000280  00000-0  92828-4 0  9994
2 27451 086.3969 319.7354 0002258 089.3124 330.5061 14.34218266689286
Epoch (UTC): 06 July 2015 10:22:25
Eccentricity: 0.0002258
inclination: 86.3969°
perigee height: 776 km
apogee height: 779 km
right ascension of ascending node: 319.7354°
argument of perigee: 89.3124°
revolutions per day: 14.34218266
mean anomaly at epoch: 330.5061°
orbit number at epoch: 68928

The dashed part of the orbit path shows where the satellite is in the earth's shadow,  

DLR